Regional Weather Roundup
Issued by NWS

Home | Current Version | Previous Version | Text Only | Print | Product List | Glossary Off
Versions: 1 2 3 4 5 6 7 8 9 10 11 12 13 14 15 16 17 18 19 20 21 22 23 24 25 26 27 28 29 30 31 32 33 34 35 36 37 38 39 40 41 42 43 44 45 46 47 48 49 50

000
ASUS45 KTFX 042210
RWRMT
MONTANA REGIONAL WEATHER ROUNDUP
NATIONAL WEATHER SERVICE GREAT FALLS MT
400 PM MDT WED MAY 04 2016

NOTE: "FAIR" INDICATES FEW OR NO CLOUDS BELOW 12000 FEET WITH NO
SIGNIFICANT WEATHER AND/OR OBSTRUCTIONS TO VISIBILITY.

MTZ001>007-043-042300-
WEST OF THE DIVIDE

CITY           SKY/WX    TMP DP  RH WIND       PRES   REMARKS
KALISPELL      PTSUNNY   75  44  33 S10       29.91F
MISSOULA       MOSUNNY   77  36  22 CALM      29.93F
BUTTE          CLOUDY    71  23  16 SE8G18    30.03F
MULLAN PASS    CLOUDY    60  33  36 VRB3      30.06F
ANACONDA         N/A     73  27  17 S12       30.00F
DEER LODGE       N/A     75  23  14 SW3       29.98F
EUREKA           N/A     81  36  19 S7        29.88F
HAMILTON         N/A     79  28  15 SW5       29.93F
LIBBY            N/A     79  37  22 NW9       29.88F
PLAINS           N/A     79  41  25 S1        29.90F
$$

MTZ008-052>055-042300-
SOUTHWEST MONTANA

CITY           SKY/WX    TMP DP  RH WIND       PRES   REMARKS
BOZEMAN        SUNNY     78  26  14 SW12      29.98F
DILLON         SUNNY     74  25  16 SW14      30.02F
ENNIS          SUNNY     72  23  16 S8G28     30.09F
TWIN BRIDGES     N/A     75  25  15 S20       30.01F
$$

MTZ009-010-012-014-046-048-049-054-042300-
EAST SLOPES AND CENTRAL MONTANA

CITY           SKY/WX    TMP DP  RH WIND       PRES   REMARKS
CUT BANK         N/A     78  34  20 W14G21    29.90F
GREAT FALLS    SUNNY     80  30  16 W18G26    29.91F
MALMSTROM AFB  CLOUDY    79  29  16 W7G20     29.91F
HELENA         MOSUNNY   83  32  16 VRB6      29.90F
CHOTEAU          N/A     79  28  15 S17G31    29.91F
CONRAD           N/A     83  39  20 S6        29.92F
$$

MTZ011-013-016-021-045-047-050-051-042300-
NORTH CENTRAL MONTANA

CITY           SKY/WX    TMP DP  RH WIND       PRES   REMARKS
HAVRE          SUNNY     84  38  19 SW16      29.85F
LEWISTOWN      CLOUDY    80  30  16 SW20G25   29.95F
N BAR RANCH      N/A     79  27  14 S15G21    29.98F
$$

MTZ017>020-022>027-061-062-042300-
NORTHEAST MONTANA

CITY           SKY/WX    TMP DP  RH WIND       PRES   REMARKS
GLASGOW        SUNNY     85  39  19 S13       29.86F
JORDAN           N/A     83  41  22 S10       29.89F
SIDNEY         SUNNY     84  37  18 S15       29.91F
WOLF POINT     SUNNY     86  41  20 SW12      29.87F
POPLAR           N/A     84  39  20 S14         N/A
SCOBEY           N/A     84  37  18 SW10      29.89F
$$

MTZ028>42-056>058-042300-
SOUTHCENTRAL AND SOUTHEAST MONTANA

CITY           SKY/WX    TMP DP  RH WIND       PRES   REMARKS
BAKER          SUNNY     80  35  19 S16       29.99F
BILLINGS       MOSUNNY   81  24  12 SW7       29.96F
LIVINGSTON     SUNNY     80  27  14 S16G28    29.98F
MILES CITY     SUNNY     84  35  17 S9G18     29.92F
EKALAKA          N/A     77  38  24 S7        30.00F
FORSYTH          N/A     84  37  18 S3        29.92F
LAUREL           N/A     80  31  17 SE2       29.95F
ROUNDUP          N/A     82  31  16 SW7       29.86F
$$

REGIONAL REPORTS...DAKOTAS

CITY           SKY/WX    TMP DP  RH WIND       PRES   REMARKS
WILLISTON      MOSUNNY   85  37  18 S16G25    29.91F
MINOT          SUNNY     88  37  16 S13       29.91F
DICKINSON      SUNNY     79  36  21 SW9       29.96F
BEACH            N/A     81  34  18 SW18G29   29.99F
CROSBY           N/A     86  36  16 SW21      29.91F
TIOGA            N/A     82  34  17 SW17      29.97F
WATFORD CITY     N/A     82  37  20 S12G20    29.93F
BISMARCK       SUNNY     79  41  25 SW5       29.99F
GRAND FORKS    MOSUNNY   71  30  21 W6        29.98F
FARGO          SUNNY     71  29  21 NW7       29.98F
BUFFALO SD       N/A     79  36  21 S18       29.96F
RAPID CITY     SUNNY     76  43  30 S14       30.06F
$$

REGIONAL REPORTS...WYOMING/IDAHO/WASHINGTON

CITY           SKY/WX    TMP DP  RH WIND       PRES   REMARKS
GILLETTE       SUNNY     77  34  21 W6        30.04F
SHERIDAN       SUNNY     80  36  20 SE8       29.99F
BUFFALO WY     SUNNY     77  36  22 E9        30.05F
CODY           CLOUDY    79  28  15 SE8G18    30.02F
YELLOWSTONE LA   N/A     59  24  26 VRB5      30.23F
IDAHO FALLS    CLOUDY    76  31  19 S13G22    30.05F
SALMON         CLOUDY    79  32  18 SW5G20    29.93F
BOISE          CLOUDY    84  33  16 S13G22    29.86F
SPOKANE        PTSUNNY   76  44  32 W6        29.92F
$$

REGIONAL REPORTS...ALBERTA

CITY           SKY/WX    TMP DP  RH WIND       PRES   REMARKS
EDMONTON       SUNNY     82  36  18 S6        29.71F
CALGARY        PTSUNNY   77  32  19 SW13G22   29.82F
LETHBRIDGE     CLOUDY    82  30  15 SW17G29   29.83F
MEDICINE HAT   PTSUNNY   86  36  16 S7G18     29.79F
WATERTON GATE    N/A     75  34  22 W14G24      N/A
CARDSTON         N/A     77  36  22 SW8         N/A
MILK RIVER       N/A     81  41  24 W12G18      N/A
ONEFOUR          N/A     81  34  18 S9          N/A
$$

REGIONAL REPORTS...SASKATCHEWAN

CITY           SKY/WX    TMP DP  RH WIND       PRES   REMARKS
SWIFT CURRENT  SUNNY     84  30  14 SW9G22    29.84F
REGINA         MOSUNNY   88  34  14 SW14G21   29.80F
SASKATOON      SUNNY     88  30  12 W21G29    29.72F
CYPRESS HILLS    N/A     77  34  20 S9          N/A
VAL MARIE        N/A     82  34  17 S3          N/A
ROCKGLEN         N/A     81  36  19 SW13G22     N/A
ASSINIBOIA       N/A     82  28  14 SW10        N/A
$$



USA.gov is the U.S. government's official web portal to all federal, state and local government web resources and services.